When you browse on this site, cookies collect data to enhance your experience and personalize the content and advertising you see.
Visit our Privacy Policy to learn more. By continuing to use the site, you agree to this use of cookies and data.
  • In Denmark
  • List of Countries
  • For 7 days
  • Water Temperature
  • Satellite Maps
  • Weather Map
  • Weather Widgets
  • user-avatar
    Login

    Hourly Weather San Fernando de Apure

    Today, 18 November, Sunday

    Time Temperature Precipitation Wind Pressure Humidity
    00:00 +26°C° 2 mm 1 mps 753 mmHg 93%
    01:00 +26°C° 2 mm 1 mps 753 mmHg 94%
    02:00 +26°C° 2 mm 1 mps 753 mmHg 95%
    03:00 +25°C° 0.2 mm 1 mps 753 mmHg 95%
    04:00 +25°C° 0.2 mm 2 mps 753 mmHg 95%
    05:00 +25°C° 0.2 mm 2 mps 753 mmHg 96%
    06:00 +26°C° 0.1 mm 2 mps 753 mmHg 94%
    07:00 +26°C° 0.1 mm 2 mps 754 mmHg 92%
    08:00 +26°C° 0.1 mm 3 mps 754 mmHg 91%
    09:00 +28°C° 0 mm 3 mps 754 mmHg 84%
    10:00 +30°C° 0 mm 3 mps 754 mmHg 78%
    11:00 +31°C° 0 mm 3 mps 754 mmHg 71%
    12:00 +33°C° 0.2 mm 3 mps 754 mmHg 69%
    13:00 +34°C° 0.2 mm 3 mps 753 mmHg 67%
    14:00 +34°C° 0.2 mm 3 mps 752 mmHg 65%
    15:00 +34°C° 0.8 mm 2 mps 751 mmHg 69%
    16:00 +32°C° 0.8 mm 2 mps 751 mmHg 73%
    17:00 +32°C° 0.8 mm 2 mps 751 mmHg 77%
    18:00 +30°C° 0 mm 1 mps 751 mmHg 79%
    19:00 +29°C° 0 mm 1 mps 752 mmHg 81%
    20:00 +28°C° 0 mm 1 mps 752 mmHg 83%
    21:00 +28°C° 0 mm 1 mps 752 mmHg 84%
    22:00 +27°C° 0 mm 1 mps 753 mmHg 84%
    23:00 +27°C° 0 mm 2 mps 753 mmHg 84%

    Tomorrow, 19 November, Monday

    Time Temperature Precipitation Wind Pressure Humidity
    00:00 +27°C° 0 mm 2 mps 753 mmHg 85%
    01:00 +26°C° 0 mm 2 mps 753 mmHg 86%
    02:00 +26°C° 0 mm 2 mps 753 mmHg 87%
    03:00 +26°C° 0 mm 2 mps 753 mmHg 88%
    04:00 +26°C° 0 mm 2 mps 752 mmHg 88%
    05:00 +25°C° 0 mm 2 mps 752 mmHg 89%
    06:00 +26°C° 0 mm 3 mps 753 mmHg 87%
    07:00 +27°C° 0 mm 3 mps 753 mmHg 85%
    08:00 +27°C° 0 mm 3 mps 754 mmHg 84%
    09:00 +29°C° 0 mm 4 mps 754 mmHg 79%
    10:00 +30°C° 0 mm 4 mps 754 mmHg 74%
    11:00 +33°C° 0 mm 4 mps 754 mmHg 69%
    12:00 +33°C° 0 mm 4 mps 753 mmHg 66%
    13:00 +34°C° 0 mm 3 mps 752 mmHg 64%
    14:00 +35°C° 0 mm 3 mps 751 mmHg 62%
    15:00 +34°C° 0 mm 3 mps 751 mmHg 65%
    16:00 +34°C° 0 mm 2 mps 750 mmHg 69%
    17:00 +32°C° 0 mm 2 mps 750 mmHg 72%
    18:00 +31°C° 0 mm 2 mps 751 mmHg 74%
    19:00 +30°C° 0 mm 2 mps 751 mmHg 77%
    20:00 +28°C° 0 mm 2 mps 752 mmHg 79%
    21:00 +28°C° 0 mm 2 mps 752 mmHg 80%
    22:00 +28°C° 0 mm 2 mps 753 mmHg 80%
    23:00 +28°C° 0 mm 2 mps 753 mmHg 80%

    Day after tomorrow, 20 November, Tuesday

    Time Temperature Precipitation Wind Pressure Humidity
    00:00 +27°C° 0 mm 2 mps 753 mmHg 81%
    01:00 +27°C° 0 mm 2 mps 753 mmHg 82%
    02:00 +27°C° 0 mm 2 mps 753 mmHg 82%
    03:00 +27°C° 0 mm 2 mps 753 mmHg 84%
    04:00 +26°C° 0 mm 2 mps 752 mmHg 86%
    05:00 +26°C° 0 mm 2 mps 752 mmHg 87%
    06:00 +27°C° 0 mm 3 mps 753 mmHg 86%
    07:00 +27°C° 0 mm 3 mps 753 mmHg 85%
    08:00 +28°C° 0 mm 4 mps 754 mmHg 83%
    09:00 +29°C° 0 mm 4 mps 754 mmHg 79%
    10:00 +30°C° 0 mm 4 mps 754 mmHg 74%
    11:00 +32°C° 0 mm 4 mps 754 mmHg 69%
    12:00 +33°C° 0 mm 4 mps 753 mmHg 66%
    13:00 +34°C° 0 mm 4 mps 753 mmHg 62%
    14:00 +35°C° 0 mm 3 mps 752 mmHg 59%
    15:00 +35°C° 0 mm 3 mps 751 mmHg 62%
    16:00 +34°C° 0 mm 2 mps 751 mmHg 64%
    17:00 +34°C° 0 mm 2 mps 750 mmHg 67%
    18:00 +32°C° 0 mm 1 mps 751 mmHg 70%
    19:00 +30°C° 0 mm 1 mps 751 mmHg 72%
    20:00 +29°C° 0 mm 1 mps 752 mmHg 75%
    21:00 +29°C° 0 mm 2 mps 752 mmHg 75%
    22:00 +28°C° 0 mm 2 mps 753 mmHg 76%
    23:00 +28°C° 0 mm 2 mps 753 mmHg 77%

    21 November, Wednesday

    Time Temperature Precipitation Wind Pressure Humidity
    00:00 +28°C° 0 mm 2 mps 753 mmHg 79%
    01:00 +27°C° 0 mm 2 mps 753 mmHg 81%
    02:00 +27°C° 0 mm 2 mps 753 mmHg 83%
    03:00 +27°C° 0 mm 2 mps 753 mmHg 84%
    04:00 +26°C° 0 mm 2 mps 753 mmHg 86%
    05:00 +26°C° 0 mm 2 mps 753 mmHg 87%
    06:00 +27°C° 0 mm 3 mps 753 mmHg 85%
    07:00 +27°C° 0 mm 3 mps 754 mmHg 84%
    08:00 +28°C° 0 mm 4 mps 754 mmHg 82%
    09:00 +29°C° 0 mm 4 mps 755 mmHg 77%
    10:00 +30°C° 0 mm 4 mps 755 mmHg 71%
    11:00 +33°C° 0 mm 4 mps 755 mmHg 66%
    12:00 +34°C° 0 mm 4 mps 754 mmHg 63%
    13:00 +34°C° 0 mm 4 mps 753 mmHg 60%
    14:00 +35°C° 0 mm 3 mps 751 mmHg 57%
    15:00 +35°C° 0 mm 3 mps 751 mmHg 60%
    16:00 +35°C° 0 mm 2 mps 750 mmHg 63%
    17:00 +34°C° 0 mm 2 mps 750 mmHg 66%
    18:00 +32°C° 0 mm 2 mps 751 mmHg 68%
    19:00 +30°C° 0 mm 2 mps 751 mmHg 70%
    20:00 +29°C° 0 mm 2 mps 752 mmHg 72%
    21:00 +28°C° 0 mm 2 mps 752 mmHg 73%
    22:00 +28°C° 0 mm 2 mps 752 mmHg 73%
    23:00 +28°C° 0 mm 2 mps 753 mmHg 74%

    22 November, Thursday

    Time Temperature Precipitation Wind Pressure Humidity
    00:00 +27°C° 0 mm 2 mps 752 mmHg 77%
    01:00 +27°C° 0 mm 2 mps 752 mmHg 79%
    02:00 +27°C° 0 mm 2 mps 752 mmHg 82%
    03:00 +26°C° 0 mm 2 mps 752 mmHg 84%
    04:00 +26°C° 0 mm 2 mps 752 mmHg 85%
    05:00 +26°C° 0 mm 2 mps 752 mmHg 87%
    06:00 +27°C° 0 mm 3 mps 753 mmHg 85%
    07:00 +27°C° 0 mm 3 mps 753 mmHg 83%
    08:00 +28°C° 0 mm 4 mps 754 mmHg 81%
    09:00 +29°C° 0 mm 4 mps 754 mmHg 76%
    10:00 +30°C° 0 mm 4 mps 754 mmHg 70%
    11:00 +33°C° 0 mm 4 mps 754 mmHg 65%
    12:00 +34°C° 0 mm 4 mps 753 mmHg 62%
    13:00 +34°C° 0 mm 3 mps 752 mmHg 60%
    14:00 +35°C° 0 mm 3 mps 751 mmHg 57%
    15:00 +35°C° 0 mm 3 mps 750 mmHg 60%
    16:00 +34°C° 0 mm 2 mps 750 mmHg 63%
    17:00 +33°C° 0 mm 1 mps 749 mmHg 66%
    18:00 +31°C° 0 mm 1 mps 750 mmHg 68%
    19:00 +30°C° 0 mm 1 mps 751 mmHg 70%
    20:00 +29°C° 0 mm 1 mps 751 mmHg 72%
    21:00 +28°C° 0 mm 1 mps 752 mmHg 73%
    22:00 +28°C° 0 mm 1 mps 752 mmHg 74%
    23:00 +28°C° 0 mm 1 mps 752 mmHg 75%

    23 November, Friday

    Time Temperature Precipitation Wind Pressure Humidity
    00:00 +27°C° 0 mm 2 mps 752 mmHg 76%
    01:00 +27°C° 0 mm 2 mps 752 mmHg 76%
    02:00 +27°C° 0 mm 2 mps 751 mmHg 77%
    03:00 +26°C° 0 mm 2 mps 751 mmHg 79%
    04:00 +26°C° 0 mm 2 mps 752 mmHg 80%
    05:00 +26°C° 0 mm 2 mps 752 mmHg 81%
    06:00 +26°C° 0 mm 2 mps 752 mmHg 81%
    07:00 +27°C° 0 mm 3 mps 753 mmHg 81%
    08:00 +27°C° 0 mm 3 mps 753 mmHg 81%
    09:00 +29°C° 0 mm 3 mps 753 mmHg 75%
    10:00 +30°C° 0 mm 3 mps 753 mmHg 70%
    11:00 +33°C° 0 mm 3 mps 753 mmHg 65%
    12:00 +33°C° 0 mm 3 mps 752 mmHg 62%
    13:00 +34°C° 0 mm 3 mps 751 mmHg 60%
    14:00 +35°C° 0 mm 3 mps 750 mmHg 57%
    15:00 +34°C° 0 mm 2 mps 750 mmHg 60%
    16:00 +34°C° 0 mm 2 mps 749 mmHg 64%
    17:00 +32°C° 0 mm 1 mps 749 mmHg 67%
    18:00 +31°C° 0 mm 1 mps 750 mmHg 69%
    19:00 +30°C° 0 mm 1 mps 750 mmHg 72%
    20:00 +28°C° 0 mm 1 mps 751 mmHg 75%
    21:00 +28°C° 0 mm 1 mps 751 mmHg 75%
    22:00 +28°C° 0 mm 1 mps 751 mmHg 76%
    23:00 +28°C° 0 mm 1 mps 752 mmHg 76%
    Show more